CARTOSAT-2B

Last updated on Mon Sep 15 2025 00:02:30 GMT+0000 (Coordinated Universal Time)

1 36795U 10035A 25257.32347535 .00000514 00000+0 76699-4 0 9992 2 36795 97.7996 309.1828 0011672 13.2777 346.8739 14.78779623819084
UTC large
Height (km)
Speed (km/s)
/
Latitude / Longitude
Inclination (degrees)
Orbital Period (minutes)
Azimuth
Elevation
Range (km)
Doppler Factor

Next 0 passes for location: London (51.5072 / 0.1276)

Sorry there are no passes over London.